Location: Hamayl? Da??
(36.7028°N, 30.1716°E)
Time: 06:32:04
(UTC+00:00)

Okean O Rocket - Pass Details

Date: 04 August 2024
Orbit: 618 x 638 km, 98.1° (Epoch: 10 September)

Event Time Altitude Azimuth Distance (km) Brightness Sun altitude
Exits shadow 18:29:36 12° 182° (S) 1,865 3.7 -16.1°
Maximum altitude 18:33:33 56° 260° (W) 744 2.1 -16.7°
Drops below altitude 10° 18:37:50 10° 338° (NNW) 2,005 5.1 -17.4°
Sets 18:40:05 0° 343° (NNW) 2,920 5.9 -17.8°
